Theta_e
327 328 328 328 328 328 328 327 326 326 326 325 326 326 326 325 324 325 324 324 324 323 322 320 319 316 313 312 310 307 305 305 306 308 308 307 305 303 302 302 302 302 302 302 302 302 302 302 302 302 302 302 303 303 303 303 303 303 303 303 302 302 302 302 302 302 302 302 302 303 303 303 303 303
327 327 328 328 328 328 328 327 327 326 325 325 326 326 326 325 325 324 324 323 324 323 321 319 318 315 311 310 309 307 305 305 307 309 308 306 305 303 301 302 302 302 302 302 302 302 302 302 303 303 303 304 304 305 305 305 305 305 305 305 305 305 305 304 304 304 304 305 305 306 306 307 307 307
327 327 327 327 327 328 328 327 327 327 325 325 326 326 326 326 325 325 324 323 323 322 319 317 317 315 313 311 309 308 306 306 308 309 308 306 305 303 302 302 302 302 302 302 302 302 303 303 304 304 305 306 307 308 308 309 309 309 309 310 310 310 310 309 309 309 310 310 310 311 311 311 311 311
326 326 326 327 327 327 327 327 327 326 325 325 326 326 326 326 326 325 325 322 321 320 318 317 316 315 314 312 310 309 307 306 308 310 308 307 306 304 302 302 302 302 302 302 302 302 303 304 305 306 307 308 309 310 311 311 311 311 312 312 312 312 312 312 312 312 312 312 312 312 312 312 312 312
325 326 326 326 327 327 327 327 327 326 325 325 326 326 326 327 326 325 324 322 320 319 318 317 316 315 314 313 311 309 307 306 307 310 309 308 307 305 304 303 303 303 303 303 303 303 303 304 306 306 307 308 309 310 311 311 311 311 311 311 311 311 312 312 312 312 312 312 312 312 312 312 312 312
324 325 325 326 326 326 327 327 327 326 326 325 325 326 327 326 325 324 323 322 321 320 318 317 317 316 315 314 312 309 307 305 307 309 310 309 308 307 306 305 304 303 303 303 303 303 303 304 306 307 308 308 309 310 310 311 311 311 311 311 311 311 311 312 312 312 312 312 312 312 312 312 312 312
324 324 325 325 326 326 326 327 327 326 326 326 326 326 326 326 325 323 322 321 321 321 320 318 317 316 315 314 312 310 307 305 307 309 310 310 309 308 307 306 305 305 305 305 305 304 304 304 305 307 308 309 309 309 310 310 311 311 311 311 311 311 311 312 312 312 312 312 312 312 312 312 311 311
324 324 325 325 325 326 326 326 326 326 326 326 326 326 326 326 325 324 323 322 322 322 321 320 318 316 315 313 312 310 307 306 307 309 310 310 309 308 307 307 306 307 307 307 307 306 305 304 305 306 308 309 309 310 310 311 311 311 311 311 311 311 311 311 311 312 312 311 311 311 311 311 311 311
325 324 325 325 325 325 325 325 326 326 326 326 326 326 326 326 326 325 325 324 323 322 321 320 320 318 315 313 311 310 308 307 307 308 310 310 309 309 308 307 307 308 308 309 308 308 307 306 306 307 309 310 310 311 311 311 311 311 311 311 311 311 311 311 311 311 311 311 311 311 311 311 311 311
325 324 324 325 325 326 325 325 325 325 325 326 326 326 326 326 326 325 325 324 323 321 318 318 319 317 315 314 312 310 309 309 309 309 310 309 309 310 310 310 309 309 310 311 311 310 309 308 308 310 311 311 311 312 312 312 312 312 312 312 312 312 312 312 312 312 311 311 311 311 311 311 311 311
324 323 323 323 323 324 325 325 325 325 325 326 326 326 326 325 325 325 325 324 323 321 318 317 317 316 315 314 312 310 309 309 310 310 310 310 310 311 312 312 312 312 312 313 313 312 311 310 311 312 312 312 312 312 313 313 313 313 313 313 313 313 313 313 313 312 312 312 312 312 311 311 311 311
323 323 321 320 320 321 323 325 326 326 326 326 326 326 326 325 325 325 325 324 323 322 320 317 317 317 316 315 312 310 309 309 311 311 310 311 312 312 312 313 313 313 313 313 313 313 312 312 312 312 312 313 313 313 313 313 313 313 313 314 314 314 313 313 313 313 312 313 313 312 311 311 310 310
323 322 320 319 318 319 322 325 326 326 326 326 326 326 326 326 325 325 324 324 323 323 321 318 317 317 316 315 313 311 310 310 311 311 311 312 312 313 313 313 313 313 313 313 313 314 313 313 313 313 313 314 314 313 313 313 313 314 314 314 314 314 314 314 314 314 313 313 313 312 312 310 309 309
321 320 319 318 317 317 321 324 325 326 326 326 326 325 325 325 325 324 324 324 323 323 322 320 319 318 317 315 313 312 311 310 311 311 312 313 313 313 313 313 314 313 313 313 314 314 314 314 314 314 314 314 314 314 314 314 314 314 314 314 314 314 314 314 314 314 314 313 313 312 311 309 308 307
320 319 318 318 317 319 322 324 325 326 326 325 325 325 324 324 324 324 323 323 322 321 321 320 320 319 316 315 313 312 312 311 311 312 312 312 313 312 313 313 314 314 313 313 314 314 315 315 315 315 315 315 315 314 314 314 314 314 314 314 314 314 314 313 313 312 312 312 311 310 308 307 306 305
319 318 318 318 317 320 323 324 325 326 325 325 324 324 323 323 323 323 322 322 321 319 318 318 318 317 315 313 311 311 311 311 311 311 311 311 312 312 312 312 313 313 313 313 314 315 315 316 316 317 317 316 316 315 315 315 314 314 314 314 314 314 314 313 313 312 311 310 310 309 307 305 304 304
318 318 318 317 316 319 323 325 325 325 324 324 323 322 321 321 321 321 320 319 319 317 316 315 315 314 312 311 311 311 312 312 312 312 313 312 312 312 313 313 313 314 314 315 315 316 317 317 317 317 317 317 317 316 315 315 315 314 314 314 314 314 314 313 313 312 311 310 310 309 307 305 304 303
319 318 318 317 316 319 324 325 324 323 322 322 321 320 320 320 320 319 318 318 317 316 315 315 314 314 313 313 315 316 316 317 316 316 316 316 315 315 316 316 316 316 316 317 317 317 317 317 317 317 317 317 317 316 316 316 315 315 315 315 315 315 314 314 313 313 311 310 310 309 308 306 305 305
319 318 318 317 317 319 324 325 324 323 322 322 321 320 320 320 319 319 318 318 317 317 317 317 317 317 317 317 318 318 318 318 318 317 317 317 317 317 317 317 317 317 317 316 316 316 316 316 316 316 316 316 316 315 315 315 315 316 316 316 315 315 315 315 315 314 312 311 310 310 309 308 308 307
319 318 318 318 318 319 322 322 321 321 321 321 321 321 321 321 320 319 319 318 318 318 318 318 318 317 317 317 317 317 317 316 316 316 316 316 316 316 316 316 316 316 316 316 316 316 316 316 316 316 316 316 316 316 315 315 315 315 316 315 315 315 315 314 314 313 313 312 310 310 310 309 308 308
319 318 319 319 318 318 319 319 318 318 319 320 320 320 320 320 320 319 319 319 318 318 318 318 317 317 317 317 317 317 317 317 317 317 317 317 316 316 316 316 316 316 316 316 316 316 316 316 316 316 316 316 316 316 315 315 314 314 314 314 313 313 313 312 312 312 312 312 311 310 310 309 308 307
318 318 319 319 319 318 318 318 318 317 318 319 320 319 319 318 318 318 318 318 318 318 318 318 318 318 318 317 318 318 318 318 318 318 317 317 316 316 315 315 315 315 315 315 314 314 314 313 313 313 312 312 311 311 311 311 312 312 313 312 312 312 311 311 312 312 312 312 312 311 310 309 308 306
318 319 320 319 319 319 318 318 318 318 318 319 319 319 319 319 318 319 318 318 318 318 317 317 317 317 317 317 317 317 317 317 317 316 315 314 314 313 312 311 310 310 310 310 310 309 309 308 308 307 307 308 308 308 309 309 310 311 311 311 311 311 311 311 311 311 311 311 311 310 309 308 306 304
319 319 319 319 319 318 318 318 318 318 318 318 318 318 318 318 318 317 317 317 316 315 315 314 314 313 313 313 312 312 312 311 311 310 308 308 307 306 305 305 304 304 305 305 305 305 305 305 305 305 307 308 308 308 308 309 309 309 309 309 309 309 309 309 309 309 309 310 309 308 307 306 304 303
319 319 318 319 319 319 319 319 318 318 318 318 318 317 317 317 316 316 315 314 312 311 310 309 308 307 306 305 304 304 304 303 303 302 302 302 301 301 301 301 300 300 301 301 302 304 304 305 305 306 306 307 307 307 307 307 307 307 308 308 308 308 308 308 308 308 308 308 308 306 305 304 303 302
319 319 319 318 319 319 318 318 317 316 316 315 315 314 313 312 311 309 308 308 306 305 304 303 302 301 300 300 300 300 300 300 300 300 300 300 300 299 299 299 298 298 298 299 301 303 304 304 305 305 305 306 306 306 306 305 305 306 306 306 307 307 307 307 307 307 307 307 306 305 304 303 302 302
315 315 315 315 315 314 314 313 312 311 310 309 307 306 305 304 303 302 301 301 301 300 300 300 300 300 299 299 299 299 299 299 299 299 299 298 298 298 298 298 298 298 298 298 300 302 303 304 304 305 305 305 304 304 304 304 304 304 305 305 306 306 306 306 306 306 307 306 304 303 302 301 301 301
309 309 309 308 308 307 306 305 304 304 303 302 301 300 300 300 300 299 299 299 299 299 299 299 299 299 299 299 299 299 298 298 298 298 298 298 298 298 298 298 298 298 298 299 300 302 304 305 304 304 304 303 303 303 303 303 304 304 304 305 305 305 305 305 305 306 306 304 302 301 301 301 301 301
304 303 303 303 302 301 301 300 300 300 299 299 299 299 299 299 299 299 299 299 299 299 299 299 299 298 298 298 298 298 298 298 298 298 298 298 298 298 298 298 299 299 299 299 300 302 304 304 304 303 303 302 302 303 303 303 303 304 304 304 304 304 304 305 305 305 305 303 302 301 301 300 300 299
301 300 300 299 299 299 299 299 299 299 299 299 299 299 299 300 299 299 299 299 298 298 298 298 298 298 298 298 298 298 298 298 298 298 298 298 298 298 298 298 298 299 299 300 301 302 302 303 303 302 301 301 302 302 302 302 302 302 303 303 303 303 304 304 304 304 304 303 301 300 300 299 299 298
301 300 300 300 300 300 300 299 299 299 299 299 299 299 299 299 298 298 298 298 298 298 298 298 298 298 298 298 298 298 298 298 298 298 298 298 298 298 298 298 298 298 298 300 301 302 302 302 301 300 300 301 301 301 301 301 301 301 302 302 303 303 303 303 303 303 303 302 300 299 299 299 298 298
300 300 300 300 300 300 300 300 299 299 299 299 299 298 298 298 298 298 298 298 298 298 298 298 298 298 298 298 298 298 298 298 298 298 297 297 297 297 297 297 297 297 298 299 301 302 302 302 301 300 301 301 302 302 302 301 301 301 301 302 302 302 302 302 302 302 301 301 300 299 299 299 298 298
300 300 300 300 300 300 300 300 300 299 299 298 298 298 298 298 298 298 298 298 298 298 298 298 298 298 298 298 298 298 298 298 298 297 297 297 296 296 296 296 296 297 297 298 300 301 301 301 301 300 300 301 301 301 300 300 300 300 300 300 301 300 300 301 300 300 300 300 300 300 299 299 298 298
300 300 300 300 300 300 300 300 300 299 298 298 298 298 298 298 298 298 298 298 298 298 298 298 298 298 298 298 297 298 297 297 297 297 297 296 296 296 296 296 296 297 297 297 298 299 300 300 299 299 299 299 299 299 299 299 299 299 299 299 299 299 299 300 300 300 300 300 300 299 299 299 298 298
300 300 300 300 300 300 300 299 299 298 298 298 298 298 298 298 298 298 298 298 298 298 297 297 297 297 297 297 297 297 297 297 297 297 296 296 296 295 295 296 296 297 297 297 297 298 298 298 298 298 298 298 298 298 298 298 298 298 298 298 298 298 298 299 299 299 299 299 299 299 299 298 298 297
300 300 300 300 300 299 299 298 298 298 298 298 298 298 298 298 298 297 297 297 297 297 297 297 296 296 296 296 296 296 297 297 297 297 296 296 296 295 295 295 296 297 297 297 298 298 298 298 298 298 298 298 297 297 297 297 297 297 297 297 297 297 297 297 298 298 298 298 298 298 297 297 297 297
299 299 299 299 298 298 298 298 298 298 298 297 297 297 297 297 297 297 297 296 296 296 296 296 296 295 295 295 295 295 295 295 295 295 295 295 295 295 294 294 295 296 296 296 297 297 297 297 297 297 297 297 297 297 297 297 297 297 297 297 297 297 297 297 297 297 297 297 297 297 297 297 296 295
298 298 297 297 297 297 298 298 298 297 297 297 297 297 297 297 296 296 296 296 295 295 295 295 295 294 294 294 294 294 294 294 294 294 294 294 294 294 293 294 295 295 295 296 296 296 296 296 296 296 295 295 296 296 296 296 296 296 296 296 296 297 297 297 297 297 297 297 297 297 296 296 295 294
297 297 296 296 297 297 298 297 297 297 297 296 296 296 296 296 295 295 295 295 294 294 294 294 294 294 293 293 293 293 293 293 293 293 293 293 293 293 293 293 293 294 294 295 295 295 295 295 295 294 294 295 295 295 295 296 296 296 296 296 296 296 296 296 296 296 296 296 296 296 296 295 294 294
296 296 296 297 297 297 297 296 296 296 296 296 296 295 295 295 295 294 294 294 293 293 293 293 293 293 292 292 292 292 292 292 292 292 292 292 292 292 292 292 292 293 293 294 294 294 294 294 294 294 294 294 294 294 295 295 295 295 296 296 296 296 296 296 296 296 296 295 295 295 295 295 294 294
296 296 297 297 296 296 296 296 296 296 295 295 295 295 294 294 294 293 293 293 293 293 292 292 292 291 291 291 291 291 291 291 291 291 291 292 292 292 292 292 292 292 292 292 293 293 293 293 293 294 294 294 294 294 294 295 295 295 295 296 295 295 295 295 295 295 294 294 294 294 294 294 294 293
296 296 296 296 295 295 295 295 295 295 294 294 294 293 293 293 293 293 292 292 292 292 291 291 291 291 290 290 290 290 291 291 291 291 291 292 292 292 292 292 291 291 292 292 292 293 293 293 294 294 294 294 293 293 293 294 294 295 295 295 295 295 294 294 294 294 294 293 294 294 294 293 293 292
296 296 296 295 295 295 294 294 294 294 293 293 293 292 292 292 292 292 292 291 291 291 290 290 290 290 290 290 290 290 290 291 290 291 291 291 291 291 292 291 291 292 292 292 293 293 293 294 294 294 294 294 294 293 293 294 294 295 295 295 295 295 294 294 293 293 293 293 293 293 293 293 292 292
295 295 295 295 294 294 293 293 293 292 292 292 292 292 292 291 291 291 291 291 290 290 290 290 290 290 289 289 290 290 291 291 290 290 291 291 291 291 292 292 292 292 293 293 293 293 294 294 294 294 294 294 294 294 294 294 295 295 295 295 295 295 294 294 293 293 293 293 293 293 293 293 292 292
295 295 295 294 293 293 292 292 292 291 291 291 291 291 291 291 291 290 290 290 290 290 290 289 290 289 289 289 289 290 291 290 290 290 290 290 290 291 292 292 292 292 293 293 293 293 294 294 294 294 294 294 295 295 295 295 295 295 295 295 295 295 294 294 294 294 294 294 293 294 294 293 292 292
Wind_Speed
16 16 16 15 13 12 13 13 13 12 12 12 12 11 14 16 16 17 19 20 19 17 14 12 9 8 8 6 4 3 3 5 6 5 5 5 5 5 6 7 7 6 5 4 4 4 3 3 2 1 1 2 2 3 4 4 5 5 5 5 6 6 6 7 7 8 8 9 9 10 11 11 12 12
16 16 16 15 14 13 14 14 14 14 13 13 13 12 13 16 16 15 14 15 17 17 14 12 10 9 8 6 4 3 4 6 6 5 5 6 6 6 7 8 7 7 6 6 6 5 5 4 3 2 0 1 2 3 3 4 4 5 5 5 5 6 6 7 7 7 8 9 9 10 11 11 12 13
16 15 15 15 15 14 14 15 15 15 14 13 13 13 14 16 17 17 14 11 12 14 12 10 10 9 8 6 5 4 5 7 7 6 6 7 7 8 9 9 8 8 8 8 7 7 6 4 3 3 1 0 1 2 2 3 4 4 5 5 6 6 7 7 7 7 8 9 9 10 11 12 13 13
16 16 15 15 15 15 14 15 16 16 15 14 15 14 15 16 17 19 17 11 8 10 10 9 9 9 8 7 6 6 6 8 9 8 7 8 8 9 10 10 10 9 9 9 9 8 7 6 5 4 3 2 2 3 3 4 4 5 5 6 6 7 8 8 8 9 9 10 11 12 12 13 14 14
17 17 16 15 14 15 15 15 16 16 15 15 16 16 16 17 17 18 18 13 9 8 9 9 9 9 9 9 9 8 8 10 10 9 9 9 9 10 11 11 11 11 10 10 10 9 8 7 6 6 5 5 5 6 6 6 6 6 7 7 8 9 10 10 11 11 12 12 13 14 15 15 16 16
18 17 17 16 14 15 16 15 17 17 16 16 17 17 17 17 17 17 17 15 12 10 10 10 9 10 11 12 10 9 9 10 11 10 9 9 10 11 12 13 13 13 12 11 11 10 10 9 8 8 8 8 8 9 8 8 8 8 9 9 10 11 11 12 13 14 14 15 16 17 17 17 17 18
16 17 17 16 15 16 15 16 17 18 17 17 17 18 18 17 17 17 17 17 15 14 13 13 11 10 11 12 12 10 9 10 12 10 10 10 11 12 13 14 14 14 14 13 13 12 12 11 11 11 10 10 11 11 11 10 10 10 11 11 11 12 13 14 15 16 17 17 18 19 19 19 19 20
15 15 15 16 15 15 15 16 17 17 17 18 19 19 20 20 20 18 18 17 16 16 16 15 14 12 11 12 12 11 10 11 12 12 12 12 12 13 14 15 15 15 15 15 15 14 14 14 14 13 13 13 13 13 12 12 12 12 13 13 14 14 15 16 17 18 19 19 20 20 20 20 20 21
14 13 14 14 14 14 14 15 17 17 18 18 19 19 21 22 22 20 19 18 17 17 18 17 16 15 14 13 14 14 12 11 13 14 14 14 13 13 14 15 15 15 15 15 16 16 16 16 16 15 15 15 14 14 14 14 14 15 15 16 16 17 18 18 19 20 21 21 22 22 22 21 22 22
13 12 12 12 12 12 13 14 16 17 17 17 17 18 19 21 22 21 21 19 16 15 15 15 16 16 15 14 15 15 13 11 13 14 15 15 14 13 14 13 13 13 15 15 15 16 17 17 16 16 16 15 15 15 16 16 17 17 18 19 19 20 21 21 21 21 22 23 23 23 23 23 23 23
12 10 9 9 9 11 11 13 14 15 16 16 16 16 17 19 20 22 23 21 17 14 13 14 15 15 15 15 15 15 13 12 12 13 15 15 14 14 13 11 10 11 13 13 14 15 16 16 16 16 17 17 18 18 18 19 20 20 20 21 21 22 22 23 23 23 24 24 25 25 25 25 24 24
11 9 8 7 8 9 11 12 14 15 15 16 16 17 17 17 18 21 23 24 20 15 14 16 16 14 14 14 15 15 14 13 13 13 14 15 14 15 15 14 12 13 14 15 15 16 16 17 18 19 19 20 20 20 20 20 21 22 22 22 22 23 23 24 24 24 25 25 26 27 26 26 26 25
12 10 9 8 8 9 11 13 14 15 15 16 17 18 17 17 18 20 23 26 23 18 15 16 17 17 15 14 15 15 15 14 13 13 14 14 14 15 17 17 17 17 18 18 19 19 20 21 22 23 23 23 22 22 21 22 22 23 23 23 24 24 25 26 26 27 27 28 28 28 28 27 26 26
13 11 9 9 9 11 12 13 14 15 15 16 18 17 16 17 18 18 21 25 25 20 18 17 18 18 17 15 14 14 14 14 14 14 15 15 14 16 18 18 17 18 20 21 22 22 22 24 25 26 27 26 26 26 25 24 25 25 25 26 26 28 29 29 30 30 30 30 30 30 29 28 27 27
12 11 10 9 9 10 11 11 12 13 14 15 16 16 15 16 15 14 16 20 20 20 20 20 20 19 16 15 14 14 15 16 17 17 18 19 19 20 22 22 21 20 21 23 24 23 22 24 26 26 27 28 28 29 29 29 29 29 29 29 30 32 34 35 35 34 33 33 32 31 30 28 27 26
12 10 10 9 8 9 10 10 11 13 13 13 14 13 12 13 14 14 14 16 16 17 18 20 19 16 15 16 17 17 17 18 20 21 22 24 24 25 26 27 26 25 24 25 27 26 25 27 29 28 28 28 29 30 31 31 32 33 34 34 34 36 37 38 39 38 37 35 34 32 30 28 27 27
12 11 10 8 7 9 10 10 10 12 12 12 12 12 11 12 13 13 13 15 15 14 14 14 15 15 16 17 18 18 19 20 21 23 24 25 26 26 27 28 27 27 26 26 27 28 28 29 31 32 31 30 30 30 31 32 34 35 36 37 37 38 39 40 41 41 39 38 37 35 32 29 28 28
13 13 11 8 6 8 11 10 11 13 13 13 13 13 12 12 12 11 11 12 12 12 12 13 13 14 15 16 16 17 17 18 18 18 18 20 21 22 23 24 24 25 26 26 27 29 29 28 30 32 31 30 30 30 30 31 32 33 34 35 35 36 37 37 37 38 38 36 37 37 34 31 29 29
15 14 12 8 6 8 11 11 11 13 15 15 14 13 13 13 12 11 11 11 11 11 11 11 12 14 15 15 15 15 15 16 16 17 17 19 20 20 21 22 23 23 24 25 27 30 30 28 30 32 31 30 31 31 30 31 32 32 32 32 32 33 35 35 35 36 38 36 35 38 37 33 31 32
17 16 12 9 8 9 10 11 11 12 14 14 13 13 14 13 12 12 11 11 11 12 12 12 12 13 14 15 16 16 16 17 18 18 19 20 21 22 23 24 24 24 25 26 27 31 32 30 31 33 32 32 32 31 30 31 32 33 33 33 33 33 35 36 36 36 35 32 30 34 35 33 34 35
19 17 14 11 10 9 10 11 11 11 10 10 10 10 11 11 11 11 12 13 13 14 14 15 14 14 14 15 15 16 17 17 18 18 19 20 22 22 24 25 25 26 27 27 28 31 32 31 32 33 34 33 33 32 32 32 32 32 33 33 32 31 31 32 32 31 30 28 27 30 32 32 34 33
20 18 16 13 12 11 11 11 12 11 11 10 9 8 8 8 8 8 10 11 11 12 13 14 14 14 15 16 17 18 19 20 21 21 22 24 25 25 25 26 28 29 28 28 29 29 30 31 31 32 33 34 33 31 30 29 27 25 26 26 26 26 26 27 27 27 28 28 29 29 29 30 31 29
21 19 17 16 15 13 13 12 12 12 12 12 11 10 9 8 8 8 8 9 10 11 12 12 14 15 16 17 19 20 21 22 24 25 25 27 27 28 28 28 29 29 28 27 28 28 30 30 29 27 28 30 31 29 25 24 23 23 22 22 22 23 23 24 25 25 25 26 26 26 25 26 26 25
20 19 18 17 16 15 14 14 13 13 13 12 12 12 11 11 11 11 11 11 11 12 13 13 15 15 17 18 19 20 22 23 24 24 25 26 26 27 27 27 27 26 24 24 25 26 27 27 26 23 22 23 26 27 24 22 20 20 20 20 20 21 22 23 24 24 23 23 22 22 23 23 23 22
20 19 18 17 17 16 15 15 15 14 13 13 13 13 13 13 13 13 13 14 14 15 15 16 17 18 18 19 20 21 21 22 22 22 22 22 23 23 23 24 24 24 23 23 23 22 21 21 20 19 18 19 21 23 23 21 19 17 17 17 18 20 21 22 22 21 20 19 19 21 22 23 22 20
19 18 16 16 16 16 15 14 13 13 13 12 12 13 13 13 14 15 15 16 17 17 18 18 18 18 18 19 19 19 19 19 19 19 19 19 19 20 20 21 21 21 21 20 19 19 18 16 15 15 15 16 18 19 21 21 19 17 16 16 17 19 19 19 19 18 17 17 18 20 22 21 20 18
15 15 14 14 14 13 12 11 11 11 12 13 13 13 13 13 13 14 14 15 15 16 15 15 15 15 15 15 16 16 16 16 17 17 18 18 18 19 19 19 19 19 18 17 15 16 15 13 12 13 13 15 17 19 20 20 20 20 19 18 18 19 19 19 17 15 14 15 17 20 20 20 19 17
8 9 10 10 10 9 8 9 10 11 11 11 11 10 10 10 10 10 10 10 10 10 11 11 11 11 12 13 14 14 15 16 16 17 18 18 19 19 19 19 19 19 18 15 12 12 12 12 12 13 14 16 18 18 19 21 21 21 21 19 18 17 16 15 14 13 12 14 17 20 20 19 17 15
4 5 6 7 7 6 7 8 8 8 8 8 7 7 7 7 7 7 8 8 8 9 9 9 10 10 11 12 14 14 15 17 17 18 18 18 19 20 19 18 18 18 17 14 11 10 11 13 13 15 17 18 17 16 17 19 20 19 18 17 16 15 14 12 12 12 12 15 18 19 19 16 13 11
2 2 3 5 6 6 7 7 7 7 6 6 6 6 6 6 7 7 7 7 7 7 7 8 9 10 11 12 13 15 16 17 19 19 19 19 19 20 20 19 17 16 16 15 12 12 14 16 17 18 19 18 16 16 17 18 18 17 16 16 15 14 13 12 12 12 14 16 17 18 16 12 10 10
2 3 5 7 7 8 8 8 8 7 7 6 7 6 6 5 4 4 4 4 5 5 6 8 9 10 11 12 13 14 15 16 17 18 18 18 18 18 19 19 17 15 14 14 14 14 15 16 17 18 19 18 16 16 17 18 18 18 17 17 16 14 13 12 11 13 16 16 16 17 16 12 11 11
6 8 8 9 8 8 8 7 7 6 6 6 6 5 4 3 2 3 4 4 5 6 7 8 9 10 11 11 12 12 13 14 15 16 16 17 17 17 18 18 17 16 13 11 12 13 13 14 14 15 17 17 17 17 18 18 18 18 18 17 16 14 13 13 12 13 15 16 16 17 15 14 13 13
9 10 10 10 9 8 7 6 5 5 4 3 2 1 1 2 3 3 4 5 6 6 7 7 8 9 10 10 11 11 12 12 14 15 16 17 18 18 17 16 16 15 12 9 9 10 10 10 12 14 16 18 17 17 18 18 17 17 17 17 16 15 13 13 12 11 12 16 18 16 15 15 15 14
11 11 11 9 8 7 6 5 5 4 2 0 1 1 2 2 2 3 3 3 4 5 5 6 7 8 8 9 10 10 10 11 12 13 14 16 17 17 16 15 14 14 11 9 8 9 9 10 12 14 16 17 16 15 16 17 16 16 15 14 13 13 11 9 8 8 9 13 15 15 14 15 15 14
11 11 10 9 8 7 6 5 3 1 1 1 2 2 2 3 3 3 3 4 4 5 6 6 7 7 8 9 10 10 10 10 10 10 12 13 15 15 14 13 12 12 11 9 9 10 10 10 11 13 13 13 13 12 13 15 15 15 14 11 10 9 8 7 7 8 8 10 12 13 14 14 15 15
10 10 9 9 8 6 4 3 2 3 3 3 3 3 3 4 4 4 5 5 6 6 6 7 8 8 9 10 10 10 10 9 8 9 10 11 11 11 11 10 9 10 10 9 9 10 10 10 11 12 13 13 13 12 12 13 13 13 12 11 8 7 7 8 9 9 10 10 11 12 13 14 14 12
9 9 8 7 5 4 3 4 4 5 5 5 5 4 4 4 5 5 6 6 6 6 7 8 9 9 10 10 10 10 10 9 9 9 9 9 9 9 10 10 9 9 10 11 11 11 11 11 12 13 13 13 13 12 11 12 12 11 10 9 8 7 6 5 7 8 9 10 12 13 13 11 8 6
7 7 5 4 4 5 5 6 6 6 6 6 6 5 5 5 6 6 6 6 6 7 8 9 9 9 9 9 9 10 10 10 10 11 11 11 11 11 11 11 10 10 10 10 11 11 12 12 12 12 12 13 13 12 11 11 11 9 8 7 6 5 4 3 6 8 10 11 12 11 9 6 4 5
5 4 3 5 7 8 8 7 7 6 6 6 6 6 6 6 7 7 6 7 7 8 8 9 9 10 10 10 10 10 10 11 11 12 12 13 13 12 11 10 10 10 10 11 11 11 11 11 11 11 12 12 12 12 12 13 11 8 6 5 3 3 3 5 6 8 9 9 8 6 5 4 5 5
4 4 6 7 9 9 8 8 7 7 7 6 6 6 7 7 7 7 7 8 9 9 9 9 10 10 11 12 12 12 12 12 12 12 12 12 12 12 12 11 11 10 10 10 10 11 12 12 12 12 12 12 11 11 11 12 11 9 7 6 5 4 5 6 6 6 6 5 3 2 2 4 4 4
3 5 7 9 9 9 9 9 8 8 8 7 7 7 7 7 8 8 8 9 9 9 9 10 11 12 12 13 13 13 13 12 12 12 12 12 12 12 13 13 13 12 11 11 10 11 12 13 13 14 13 13 12 11 10 11 10 10 9 7 5 3 3 3 3 3 3 2 2 2 2 1 2 3
4 6 8 9 10 10 10 10 10 9 9 9 9 8 8 9 9 9 9 9 9 9 10 11 12 13 13 13 14 13 13 12 13 14 14 14 14 14 15 16 16 16 15 14 13 13 14 14 14 14 14 14 13 10 8 9 10 10 9 7 4 3 1 1 2 2 2 2 2 2 2 3 4 4
7 9 10 10 10 10 10 10 11 11 11 11 11 11 10 9 9 9 9 9 9 10 11 12 13 13 13 13 13 12 11 12 13 15 15 16 16 16 17 18 18 17 17 16 15 14 14 15 14 13 13 13 13 12 9 8 9 9 8 7 6 4 2 0 1 2 2 2 1 1 2 3 4 3
10 11 11 11 10 10 10 11 11 12 13 12 12 11 10 9 9 9 9 9 10 10 11 12 12 12 12 12 11 11 11 12 14 15 15 16 16 16 17 17 16 16 16 15 15 14 13 13 14 13 13 12 12 10 8 6 6 6 4 2 4 4 2 1 2 1 1 1 0 0 1 2 2 2
12 11 11 11 11 11 11 12 12 12 13 12 11 10 9 8 8 8 9 9 9 9 9 10 10 11 11 11 11 11 11 12 13 14 14 14 14 14 14 14 14 14 14 14 14 13 12 12 12 12 12 11 9 7 6 5 4 4 4 3 4 3 1 1 2 1 1 2 2 2 2 2 3 3
Wind_Direction
221 222 224 225 225 230 233 233 233 229 223 222 226 229 227 224 214 206 210 216 217 217 214 207 203 198 192 195 210 227 221 210 207 217 238 241 230 224 215 203 197 197 199 202 205 202 196 192 185 173 99 46 30 21 15 10 6 2 359 356 353 354 356 359 0 0 360 359 357 357 356 356 356 355
220 221 222 224 226 226 226 229 232 229 224 223 225 228 230 232 233 230 229 229 224 221 215 203 197 199 200 202 204 211 221 213 211 221 236 239 234 226 218 212 208 206 208 212 213 209 199 195 194 189 153 39 25 13 4 357 354 354 351 349 350 350 351 352 354 356 355 354 354 352 350 349 348 348
221 223 223 224 226 224 222 226 229 227 226 226 225 228 229 229 234 238 245 252 234 219 210 198 192 195 205 219 222 221 225 220 219 226 231 235 235 227 219 216 217 216 218 221 219 211 203 200 205 204 206 220 349 333 328 324 326 333 338 341 343 342 343 343 343 345 345 345 345 343 342 341 341 341
221 223 224 226 227 225 224 226 227 226 227 230 228 225 226 227 231 234 237 251 248 217 201 194 197 200 207 223 237 241 234 224 225 231 232 232 234 231 224 219 221 223 226 228 222 215 209 207 214 216 217 223 240 260 273 285 296 308 317 323 327 328 328 329 330 330 332 333 333 333 333 332 332 331
220 222 223 225 227 227 227 226 226 226 228 232 230 223 222 224 228 230 229 236 246 229 210 203 205 211 219 228 236 244 241 228 226 233 238 237 236 235 230 225 226 229 231 232 228 222 218 218 223 227 229 234 241 250 259 269 280 291 301 308 313 315 316 317 318 319 321 322 323 324 324 324 323 322
218 219 219 221 224 226 225 224 224 226 228 233 232 223 218 221 224 223 223 228 238 241 234 227 222 219 226 235 237 245 248 231 225 233 242 246 246 242 237 233 231 231 233 235 233 228 225 226 230 235 239 242 246 252 258 265 273 281 290 296 301 304 307 309 310 311 313 315 316 316 315 314 314 313
213 215 216 218 221 222 223 222 223 224 224 230 233 225 218 218 219 218 221 228 237 245 245 245 244 236 233 238 239 245 248 233 227 233 242 250 253 249 245 242 239 237 237 237 238 235 233 233 236 240 244 247 250 255 260 265 272 278 284 289 292 295 297 300 302 303 304 306 307 308 307 306 305 305
206 210 214 215 216 218 220 221 223 224 224 227 231 228 222 218 216 218 223 229 240 250 250 249 252 251 247 243 240 241 241 233 230 234 239 245 249 249 249 249 248 247 244 241 240 239 238 237 239 242 246 250 253 257 262 266 272 277 281 284 286 288 289 291 293 295 297 299 300 300 300 299 298 298
205 209 216 217 215 216 219 221 223 223 223 225 228 229 228 223 219 220 222 226 241 252 250 248 251 251 249 245 240 239 241 240 238 239 241 242 242 243 244 246 248 248 248 248 247 245 243 242 244 247 250 253 255 259 264 269 273 277 279 282 283 285 285 286 287 290 292 294 295 295 294 293 294 294
204 209 215 218 217 217 221 224 224 220 220 222 225 227 229 227 225 224 220 223 240 251 245 242 245 248 250 249 242 237 241 247 245 244 244 242 239 241 244 245 246 247 250 256 258 255 250 247 249 254 257 259 260 263 267 270 274 277 279 281 284 285 286 287 288 289 290 291 292 292 290 289 289 291
192 193 201 210 216 220 224 226 226 223 221 222 225 228 229 228 228 227 223 224 236 242 233 230 236 242 248 252 245 236 238 248 247 242 241 241 243 247 249 250 251 252 257 263 268 265 257 251 251 255 259 261 263 266 271 276 279 281 283 285 286 286 287 287 287 288 288 288 288 288 287 287 286 288
187 188 198 211 219 222 223 223 223 224 224 224 227 229 229 229 230 230 225 225 230 234 230 231 235 239 244 249 246 238 236 242 245 242 242 246 252 252 251 253 257 261 264 267 271 271 266 260 260 263 266 268 270 272 277 281 284 286 287 288 288 288 288 287 287 286 286 286 287 287 286 284 283 284
190 196 208 220 228 228 222 217 216 220 224 225 225 224 223 226 230 232 228 225 227 230 232 233 236 240 242 244 246 244 243 244 247 248 248 253 260 258 256 258 261 265 268 269 270 271 271 269 269 269 271 274 276 277 279 282 286 288 289 290 290 289 288 287 286 285 283 283 285 285 284 283 281 281
191 199 214 228 238 236 228 221 217 219 226 227 225 226 224 224 229 233 229 225 226 230 234 234 234 238 241 241 245 250 251 251 253 253 254 259 266 267 268 269 269 270 273 275 276 277 277 276 274 273 274 276 278 279 280 284 287 289 289 288 288 288 287 286 285 284 283 282 283 283 282 281 279 277
197 206 218 228 237 233 226 223 217 217 223 227 227 229 228 225 226 226 221 222 227 234 237 237 236 240 243 243 246 252 256 257 259 262 263 266 269 271 274 277 278 277 279 282 283 283 282 281 280 280 278 278 279 279 281 283 284 283 283 282 281 281 281 281 280 279 279 280 280 280 280 278 276 274
203 209 217 225 232 224 215 214 212 212 216 222 224 222 215 211 212 214 215 221 229 235 237 238 237 238 242 243 246 251 254 257 259 263 265 268 270 272 274 276 277 280 283 283 281 278 277 280 281 280 278 278 278 279 280 281 281 281 280 279 277 277 277 277 277 276 274 274 275 275 275 273 270 267
206 209 214 223 227 215 205 204 208 209 207 208 205 197 191 194 200 206 213 220 225 229 231 233 232 233 236 240 244 249 253 255 257 259 261 264 267 270 271 273 275 278 280 281 279 276 277 280 282 282 281 280 279 279 279 279 279 279 279 279 278 277 277 278 278 277 275 271 270 270 268 265 264 264
206 207 209 217 221 210 203 201 204 202 195 190 184 177 179 187 190 192 197 205 212 218 221 223 228 231 232 235 239 243 247 251 254 256 257 258 259 262 266 269 272 273 275 277 279 280 281 282 283 283 284 284 282 281 280 279 279 278 279 280 280 280 281 281 281 280 279 274 270 266 263 263 266 270
203 204 206 211 213 207 202 198 199 199 195 191 187 186 187 189 189 188 186 185 188 196 206 213 218 222 224 228 234 238 241 246 250 254 257 259 261 263 265 268 270 271 272 275 280 283 285 285 285 285 287 287 285 283 282 281 280 280 280 281 282 282 284 286 287 287 287 285 276 268 266 267 270 272
200 200 202 205 204 200 195 189 188 195 201 202 202 205 206 204 205 208 207 205 204 207 217 226 228 229 230 234 238 243 246 250 253 256 260 263 266 268 270 272 274 275 276 279 282 286 288 290 290 289 289 288 286 285 283 282 282 282 282 282 283 283 284 286 289 290 292 292 280 268 267 271 272 272
198 198 197 197 196 194 192 188 184 188 198 206 209 210 211 212 217 221 222 222 224 226 231 238 244 247 250 252 255 259 263 266 268 270 272 274 275 277 278 279 279 280 282 284 286 288 290 291 291 290 289 288 288 287 286 285 285 284 282 281 282 284 284 284 287 288 289 287 279 272 272 273 272 269
198 197 194 194 198 200 198 195 191 190 198 209 215 215 210 210 215 219 222 225 230 235 238 244 251 259 265 271 274 277 279 281 282 283 283 284 284 286 288 288 289 288 289 290 290 290 290 290 290 291 291 291 290 290 290 289 288 285 282 280 281 283 283 284 286 286 283 280 278 277 274 272 268 262
198 197 195 197 203 206 204 202 200 201 206 213 219 219 217 217 216 218 225 233 240 246 251 255 260 265 270 274 277 279 281 282 283 284 285 286 287 288 289 290 291 291 291 291 289 288 287 288 290 292 294 293 292 293 294 292 288 286 285 284 283 283 283 283 285 286 283 281 280 277 271 268 262 254
198 197 197 200 204 206 208 210 210 213 216 220 224 228 231 234 234 236 241 246 251 256 259 262 265 268 270 272 275 277 278 279 280 281 282 283 284 285 286 287 289 290 292 291 289 288 289 291 293 294 295 294 293 295 297 296 293 291 289 287 285 284 285 285 286 286 284 282 279 271 265 260 253 248
199 198 199 201 205 209 212 214 218 222 226 230 235 240 244 248 252 256 258 261 264 266 266 268 270 272 272 273 274 275 276 277 279 280 282 284 286 287 288 289 289 289 290 290 290 290 289 290 292 293 291 288 289 292 295 296 297 295 291 288 287 286 285 284 284 285 284 280 271 261 254 250 247 249
197 200 203 204 206 211 215 219 224 229 236 243 248 252 256 259 261 263 264 264 265 266 266 268 268 270 271 273 274 276 279 282 284 287 289 291 293 294 295 295 295 293 292 290 288 286 287 290 294 295 293 290 290 293 295 296 297 297 295 293 291 289 287 285 285 286 284 277 264 252 246 244 245 251
191 194 199 201 207 214 223 233 242 248 255 260 262 262 262 261 260 260 260 261 262 264 267 269 270 273 276 278 281 284 287 291 294 298 301 303 304 305 306 306 306 304 303 298 288 283 287 294 298 299 301 300 298 297 298 297 297 297 296 293 291 289 289 290 291 290 282 268 250 237 234 238 244 251
195 201 207 215 221 227 239 251 257 261 263 264 263 263 262 261 261 261 262 265 267 270 274 277 281 285 288 291 295 299 303 308 311 315 317 317 316 316 315 314 312 309 308 306 296 286 287 294 296 298 302 303 302 300 299 298 296 296 295 294 292 291 292 294 294 289 273 248 232 228 233 241 246 248
233 243 248 250 247 246 254 257 258 258 260 260 259 260 261 263 267 269 272 275 278 280 284 288 293 298 303 308 313 318 322 323 323 323 321 319 317 314 312 311 310 308 306 305 298 284 281 287 294 299 300 300 301 303 303 302 301 301 299 297 297 299 298 295 287 275 251 230 225 231 241 248 248 243
265 260 254 254 255 258 261 263 263 264 263 262 262 263 265 269 273 276 280 285 288 292 298 306 312 318 322 325 327 329 328 325 323 322 321 320 317 314 310 310 308 304 301 298 289 277 275 280 288 295 297 296 298 303 305 305 307 308 306 302 301 302 301 296 285 264 242 231 231 235 238 246 246 237
239 228 226 232 242 251 254 254 258 262 267 271 276 279 281 283 286 290 298 307 314 320 327 330 331 331 332 331 330 330 328 326 325 327 328 328 326 321 318 316 312 306 299 293 285 279 275 276 283 293 297 297 297 298 301 304 307 308 305 298 294 294 294 291 280 260 245 238 232 228 230 241 243 235
200 205 212 218 222 231 238 244 254 266 276 282 285 288 295 305 322 332 337 340 340 340 340 338 336 335 334 333 333 333 333 333 333 335 337 336 335 333 329 325 320 315 306 293 287 286 283 282 288 296 300 301 297 292 294 301 305 303 299 296 291 287 283 279 273 263 251 241 233 229 232 238 238 239
194 196 202 209 215 223 234 248 264 275 280 281 284 301 351 0 355 352 350 347 345 345 344 343 342 340 338 338 337 337 339 340 340 342 343 341 340 340 336 333 332 330 321 305 293 291 294 298 297 296 299 303 302 298 299 305 307 301 297 294 289 283 278 274 275 272 256 241 233 231 233 236 239 244
196 199 202 207 215 228 246 263 276 284 289 326 44 54 53 42 26 14 6 0 358 358 356 353 350 346 345 345 344 343 346 348 346 345 345 344 344 344 343 345 352 353 349 340 323 312 311 309 301 296 300 306 309 310 310 310 308 302 298 296 290 285 281 273 271 276 265 246 237 236 240 243 243 242
196 203 210 218 228 241 254 264 266 254 118 91 70 63 59 54 49 39 33 32 28 19 12 8 5 3 0 359 358 357 357 357 353 348 346 347 347 350 355 1 6 7 3 354 340 327 321 314 306 306 312 317 321 321 315 309 305 299 295 295 294 290 290 284 276 274 269 259 252 251 252 248 240 238
212 216 225 234 238 238 234 215 164 128 114 98 87 79 68 64 61 53 47 44 37 28 25 23 19 16 13 12 11 10 7 4 356 346 344 347 349 357 11 22 19 12 5 356 345 337 331 326 323 324 327 330 333 335 329 322 316 306 296 297 302 306 306 297 284 272 262 256 250 244 241 241 242 246
225 221 221 225 223 207 174 141 121 113 110 105 100 92 77 68 64 57 52 47 40 34 33 30 27 28 28 27 25 22 19 15 9 2 0 1 2 11 26 31 23 14 5 356 349 343 339 337 334 333 333 334 336 337 337 336 335 328 317 314 320 326 323 300 272 255 243 236 233 233 237 243 244 232
217 208 200 190 171 151 136 122 112 110 110 106 100 92 82 72 66 62 58 51 44 41 40 39 38 38 36 31 27 27 26 25 23 23 22 20 20 25 29 25 17 7 356 348 344 343 341 341 340 341 344 345 342 341 341 345 348 344 336 336 341 341 327 274 237 228 227 232 238 244 248 242 212 190
191 171 149 140 135 130 124 118 115 115 111 103 97 90 82 75 71 67 62 57 55 54 50 45 42 38 34 32 31 31 30 26 24 23 24 22 21 22 22 18 12 4 353 346 345 345 344 343 343 345 348 347 343 342 342 343 345 340 327 318 316 302 282 263 251 251 258 264 266 264 253 229 215 218
148 126 123 127 128 124 119 117 118 117 111 102 95 87 81 76 75 74 70 66 63 58 51 47 46 44 42 41 40 35 30 27 25 24 23 19 13 10 8 6 4 358 350 346 348 348 346 344 343 342 340 334 329 326 323 323 327 327 316 300 285 274 273 273 274 281 291 292 283 271 242 228 228 240
124 124 127 127 125 121 117 116 116 113 108 101 94 88 85 84 82 78 73 67 61 57 55 55 54 51 47 43 40 36 32 32 33 33 30 25 19 15 12 8 5 3 359 354 350 348 346 346 345 342 338 332 324 314 305 305 309 311 308 301 290 273 271 280 288 302 319 331 340 354 356 319 289 305
136 138 134 127 123 119 115 113 112 109 105 100 93 90 89 88 84 77 71 67 64 62 60 57 52 48 44 41 37 35 34 36 37 36 34 31 28 24 20 15 11 10 9 4 358 350 345 345 346 346 344 341 337 330 321 314 311 306 298 285 264 233 234 315 335 331 325 328 329 340 14 12 359 350
145 143 136 127 121 115 112 112 112 108 102 95 90 87 86 85 81 77 73 70 68 63 58 54 49 44 41 38 34 33 35 39 38 35 33 31 28 25 22 19 14 10 8 7 4 357 350 348 351 352 350 347 347 350 347 330 316 311 298 270 236 208 200 217 73 70 47 23 8 36 44 24 8 3
144 142 134 124 116 111 112 113 110 103 97 91 87 86 85 81 77 73 70 67 65 61 56 52 47 43 41 39 38 37 39 40 36 33 31 29 25 22 21 19 15 9 7 8 8 4 358 355 356 356 353 350 351 354 351 332 319 328 329 266 201 183 187 194 153 122 47 1 337 7 22 4 335 327
145 139 129 119 112 111 112 111 106 99 95 91 88 86 85 80 72 67 64 62 63 62 57 51 47 44 42 40 40 41 42 41 37 34 31 27 22 19 20 19 14 10 9 10 10 12 13 11 6 2 1 3 4 3 1 1 13 42 69 104 139 157 187 179 140 130 322 319 290 259 288 308 291 298